Regional Weather Roundup
Issued by NWS

Home | Current Version | Previous Version | Graphics & Text | Print | Product List | Glossary On
Versions: 1 2 3 4 5 6 7 8 9 10 11 12 13 14 15 16 17 18 19 20 21 22 23 24 25 26 27 28 29 30 31 32 33 34 35 36 37 38 39 40 41 42 43 44 45 46 47 48 49 50
000
ASUS43 KMKX 270711
RWRWI

WISCONSIN REGIONAL WEATHER ROUNDUP
NATIONAL WEATHER SERVICE MILWAUKEE/SULLIVAN WI
200 AM CDT WED AUG 27 2014

NOTE: "FAIR" INDICATES FEW OR NO CLOUDS BELOW 12,000 FEET WITH NO
SIGNIFICANT WEATHER AND/OR OBSTRUCTIONS TO VISIBILITY.

WIZ001-002-006>008-014>016-023>028-270800-
NORTHWEST WISCONSIN

CITY           SKY/WX    TMP DP  RH WIND       PRES   REMARKS
SUPERIOR ARPT  CLOUDY    55  53  95 CALM      30.20S
ASHLAND        CLOUDY    57  53  86 CALM      30.19S
HAYWARD        CLOUDY    56  55  97 CALM      30.20F
SIREN          RAIN      57  55  91 CALM      30.21R
RICE LAKE      DRIZZLE   59  55  89 N3        30.21F
LADYSMITH      LGT RAIN  59  55  86 N7        30.21F
EAU CLAIRE     CLOUDY    61  59  93 CALM      30.18R
MENOMONIE      CLOUDY    62  57  83 CALM      30.19S
NEW RICHMOND   CLOUDY    59  57  92 CALM      30.20F
OSCEOLA        CLOUDY    60  59  99 CALM      30.22S
$$

WIZ003>005-009-010-017-018-270800-
NORTH CENTRAL WISCONSIN

CITY           SKY/WX    TMP DP  RH WIND       PRES   REMARKS
WOODRUFF       LGT RAIN  57  54  90 NW6       30.19R
RHINELANDER    CLOUDY    55  53  93 W3        30.19R
EAGLE RIVER    LGT RAIN  53  53 100 CALM      30.18R
LAND O LAKES   RAIN      51  51 100 CALM      30.19S
PHILLIPS       LGT RAIN  55  54  95 CALM      30.20R
TOMAHAWK       CLOUDY    53  52  96 CALM      30.19R
MEDFORD        RAIN      57  55  91 N3        30.18S
MERRILL        CLOUDY    57  55  94 CALM      30.18S
$$

WIZ029-030-035-036-043>047-270800-
CENTRAL WISCONSIN

CITY           SKY/WX    TMP DP  RH WIND       PRES   REMARKS
WAUSAU         CLOUDY    60  54  80 CALM      30.16R
MOSINEE        CLOUDY    59  55  88 N5        30.18S
MARSHFIELD     CLOUDY    60  55  83 N6        30.17S
STEVENS POINT  CLOUDY    57  54  90 N3        30.18R
WAUPACA        CLOUDY    63  58  84 N5        30.16S
WAUTOMA        LGT RAIN  62  58  87 CALM      30.16S
WISC RAPIDS    CLOUDY    62  55  77 NW3       30.18R
CAMP DOUGLAS   CLOUDY    59  59 100 W3        30.17R
$$

WIZ011>013-019>022-031-037>040-048>050-270800-
NORTHEAST WISCONSIN

CITY           SKY/WX    TMP DP  RH WIND       PRES   REMARKS
ANTIGO         MOCLDY    55  54  94 CALM      30.18R
STURGEON BAY   CLOUDY    61  54  77 E3        30.15S
GREEN BAY      CLOUDY    60  56  86 N7        30.14F
MANITOWOC      LGT RAIN  63  58  83 N7        30.12F
APPLETON       CLOUDY    61  54  77 N12       30.16R
CLINTONVILLE   CLOUDY    59  54  82 N3        30.16R
OSHKOSH        CLOUDY    64  58  80 W3        30.14R
$$

WIZ032>034-041-042-053>061-270800-
SOUTHWEST WISCONSIN

CITY           SKY/WX    TMP DP  RH WIND       PRES   REMARKS
LA CROSSE      CLOUDY    63  58  83 N5        30.17R
SPARTA         CLOUDY    58  57  96 CALM      30.17F
VIROQUA        CLOUDY    61  61 100 CALM      30.18S
BOSCOBEL       CLOUDY    65  60  84 CALM      30.16R
PRAIRIE DU CHI CLOUDY    64  59  84 CALM      30.15S
PLATTEVILLE    CLOUDY    64  61  89 N3        30.16F
$$

WIZ056-057-062-063-064-067-068-270800-
SOUTH CENTRAL WISCONSIN

CITY           SKY/WX    TMP DP  RH WIND       PRES   REMARKS
BARABOO/DELLS  CLOUDY    63  56  80 NW3       30.16R
LONE ROCK      CLOUDY    68  60  75 W3        30.15R
WATERTOWN      CLOUDY    63  59  86 N3        30.14R
MADISON        LGT RAIN  64  59  83 CALM      30.14S
MIDDLETON      CLOUDY    65  62  90 CALM      30.16R
MONROE         CLOUDY    64  61  88 N6        30.15S
JANESVILLE     CLOUDY    68  57  68 N3        30.14R
$$

WIZ051-052-058>065-066-070>072-270800-
SOUTHEAST WISCONSIN

CITY           SKY/WX    TMP DP  RH WIND       PRES   REMARKS
MILWAUKEE      CLOUDY    66  57  72 N3        30.12S
WAUKESHA       CLOUDY    61  55  82 CALM      30.14F
MILWAUKEE/TIMM CLOUDY    63  55  77 CALM      30.14S
RACINE         MOCLDY    65  60  84 N5        30.14S
BURLINGTON     MOCLDY    60  60  99 CALM      30.13F
KENOSHA        MOCLDY    65  61  87 N6        30.12F
FOND DU LAC    CLOUDY    63  57  81 W3        30.15R
SHEBOYGAN      CLOUDY    62  57  83 NW5       30.12F
WEST BEND      CLOUDY    61  55  82 W3        30.14S
JUNEAU         CLOUDY    61  57  87 CALM      30.15F
$$

LSZ147-162-270800-
LAKE SUPERIOR

STATION/POSITION TIME  TEMP    WIND        PRES    WAVE
                       AIR SEA DIR/SP/G            HT/PER
                 (UTC) (F)     (DEG/KT/KT) (MB)    (FT/S)
W MID LAKE BUOY  0650   57 55  300/  6/  6 1021.2R   1/ 3
DEVILS ISLAND    0700   60     250/  2/  2 1021.9F
PORT WING        0640   60     280/  2/  5 1022.0F
SAXON HARBOR     0600   57      CALM  /  3 1022.0R
$$

LMZ867-665-643>646-270800-
LAKE MICHIGAN

STATION/POSITION TIME  TEMP    WIND        PRES    WAVE
                       AIR SEA DIR/SP/G            HT/PER
                 (UTC) (F)     (DEG/KT/KT) (MB)    (FT/S)
N MID LAKE BUOY  0650   62 65  350/ 10/ 12 1020.3R   2/ 4
NORTHPORT PIER   0600   64     360/ 13/ 14 1020.7R
SISTER BAY       0611   62      30/  2/  5   N/A
KEWAUNEE LAKESHO 0600   61     330/  2/  4 1019.1R
SHEBOYGAN LAKESH 0700   66 66  320/ 10/ 11 1019.9F
ATWATER BUOY     0700   68     340/  8/ 10 1021.0F
MILWAUKEE LAKESH 0600   68     340/  7/  9   N/A
S MID LAKE BUOY  0650   68 69  360/  2/  2 1019.8F   0
KENOSHA   LAKESH 0700   68     350/  8/ 10 1019.6S
$$

TC  - TEMPERATURE IN CELSIUS
VSB - VISIBILITY IN STATUTE MILES
WCI - WIND CHILL INDEX
HX  - HEAT INDEX



USA.gov is the U.S. government's official web portal to all federal, state and local government web resources and services.